Location: LDNL
(36.4545°S, 141.6685°E)
Time: 11:21:52
(UTC+10:00)

Tiros 1 despin weight - Pass Details

Date: 15 August 2022
Orbit: 590 x 639 km, 48.2° (Epoch: 23 September)

Event Time Altitude Azimuth Distance (km) Brightness Sun altitude
Rises 07:02:14 0° 248° (WSW) 2,960 - -3.6°
Exits shadow 07:03:23 - 253° (WSW) 2,567 ? -3.4°
Reaches altitude 10° 07:05:04 10° 264° (W) 2,044 ? -3.1°
Maximum altitude 07:08:30 20° 311° (NW) 1,474 ? -2.4°
Drops below altitude 10° 07:11:55 10° 359° (N) 2,021 ? -1.7°
Sets 07:14:43 0° 15° (NNE) 2,915 ? -1.2°
